| time (UTC) | temp F | wind direction | speed knots | gust knots | rain 1hr in | rain 24hr in | rain mn in | humidity % | barometer mb |
| 20260506215035 | 42 | 335 | 5.2 | 9.6 | 0.00 | 0.00 | 0.00 | 46 | 1013.9 |
| 20260506214544 | 42 | 319 | 5.2 | 9.6 | 0.00 | 0.00 | 0.00 | 46 | 1013.9 |
| 20260506214034 | 42 | 328 | 5.2 | 7.8 | 0.00 | 0.00 | 0.00 | 45 | 1013.9 |
| 20260506213534 | 42 | 36 | 3.5 | 7.0 | 0.00 | 0.00 | 0.00 | 45 | 1013.9 |
| 20260506213048 | 41 | 344 | 2.6 | 7.0 | 0.00 | 0.00 | 0.00 | 46 | 1013.8 |
| 20260506212534 | 42 | 345 | 1.7 | 5.2 | 0.00 | 0.00 | 0.00 | 45 | 1013.7 |
| 20260506212037 | 42 | 356 | 1.7 | 7.8 | 0.00 | 0.00 | 0.00 | 44 | 1013.7 |
| 20260506211539 | 42 | 42 | 2.6 | 7.8 | 0.00 | 0.00 | 0.00 | 44 | 1013.7 |
| 20260506211034 | 42 | 13 | 5.2 | 7.8 | 0.00 | 0.00 | 0.00 | 43 | 1013.6 |
| 20260506210534 | 43 | 29 | 2.6 | 7.8 | 0.00 | 0.00 | 0.00 | 42 | 1013.5 |
| 20260506210038 | 43 | 18 | 4.3 | 8.7 | 0.00 | 0.00 | 0.00 | 42 | 1013.6 |
| 20260506205537 | 43 | 331 | 4.3 | 9.6 | 0.00 | 0.00 | 0.00 | 41 | 1013.5 |
| 20260506205037 | 43 | 329 | 5.2 | 10.4 | 0.00 | 0.00 | 0.00 | 41 | 1013.6 |
| 20260506204550 | 43 | 356 | 4.3 | 10.4 | 0.00 | 0.00 | 0.00 | 42 | 1013.6 |
| 20260506204033 | 42 | 19 | 1.7 | 7.0 | 0.00 | 0.00 | 0.00 | 43 | 1013.5 |
| 20260506203534 | 43 | 0 | 0.9 | 6.1 | 0.00 | 0.00 | 0.00 | 44 | 1013.5 |
| 20260506203045 | 43 | 8 | 1.7 | 7.0 | 0.00 | 0.00 | 0.00 | 42 | 1013.5 |
| 20260506202535 | 43 | 344 | 2.6 | 7.0 | 0.00 | 0.00 | 0.00 | 41 | 1013.5 |
| 20260506202033 | 44 | 354 | 4.3 | 7.0 | 0.00 | 0.00 | 0.00 | 41 | 1013.4 |
| 20260506201545 | 44 | 360 | 2.6 | 5.2 | 0.00 | 0.00 | 0.00 | 42 | 1013.3 |
| 20260506201034 | 44 | 332 | 1.7 | 5.2 | 0.00 | 0.00 | 0.00 | 44 | 1013.4 |
| 20260506200533 | 44 | 53 | 2.6 | 7.0 | 0.00 | 0.00 | 0.00 | 42 | 1013.5 |
| 20260506200040 | 44 | 329 | 2.6 | 7.0 | 0.00 | 0.00 | 0.00 | 42 | 1013.4 |
| 20260506195533 | 44 | 16 | 2.6 | 6.1 | 0.00 | 0.00 | 0.00 | 43 | 1013.3 |
| 20260506195037 | 44 | 347 | 0.9 | 3.5 | 0.00 | 0.00 | 0.00 | 46 | 1013.2 |
| 20260506194541 | 44 | 60 | 0.9 | 3.5 | 0.00 | 0.00 | 0.00 | 46 | 1013.2 |
| 20260506194033 | 44 | 4 | 0.0 | 2.6 | 0.00 | 0.00 | 0.00 | 48 | 1013.2 |
| 20260506193534 | 45 | 0 | 0.0 | 2.6 | 0.00 | 0.00 | 0.00 | 49 | 1013.1 |
| 20260506193055 | 45 | 298 | 0.9 | 2.6 | 0.00 | 0.00 | 0.00 | 48 | 1013.1 |
| 20260506192534 | 45 | 0 | 0.0 | 0.0 | 0.00 | 0.00 | 0.00 | 48 | 1013.1 |
| 20260506192036 | 46 | 0 | 0.0 | 1.7 | 0.00 | 0.00 | 0.00 | 48 | 1013.0 |
| 20260506191548 | 46 | 0 | 0.0 | 1.7 | 0.00 | 0.00 | 0.00 | 47 | 1013.0 |
| 20260506191034 | 46 | 304 | 0.0 | 0.9 | 0.00 | 0.00 | 0.00 | 46 | 1012.8 |
| 20260506190534 | 47 | 302 | 0.0 | 0.9 | 0.00 | 0.00 | 0.00 | 46 | 1012.9 |
| 20260506190045 | 48 | 0 | 0.0 | 1.7 | 0.00 | 0.00 | 0.00 | 46 | 1012.9 |
| 20260506185533 | 48 | 0 | 0.0 | 2.6 | 0.00 | 0.00 | 0.00 | 45 | 1012.8 |
| 20260506185034 | 48 | 182 | 0.9 | 3.5 | 0.00 | 0.00 | 0.00 | 43 | 1012.7 |
| 20260506184543 | 48 | 217 | 0.9 | 3.5 | 0.00 | 0.00 | 0.00 | 44 | 1012.7 |
| 20260506184034 | 48 | 217 | 2.6 | 3.5 | 0.00 | 0.00 | 0.00 | 43 | 1012.7 |
| 20260506183534 | 48 | 212 | 1.7 | 4.3 | 0.00 | 0.00 | 0.00 | 42 | 1012.7 |
| 20260506183039 | 49 | 226 | 2.6 | 4.3 | 0.00 | 0.00 | 0.00 | 42 | 1012.7 |
| 20260506182533 | 49 | 231 | 2.6 | 4.3 | 0.00 | 0.00 | 0.00 | 42 | 1012.6 |
| 20260506182033 | 49 | 240 | 2.6 | 5.2 | 0.00 | 0.00 | 0.00 | 39 | 1012.5 |
| 20260506181545 | 49 | 183 | 3.5 | 5.2 | 0.00 | 0.00 | 0.00 | 37 | 1012.6 |
| 20260506181036 | 50 | 207 | 3.5 | 7.8 | 0.00 | 0.00 | 0.00 | 38 | 1012.6 |
| 20260506180536 | 50 | 237 | 4.3 | 7.8 | 0.00 | 0.00 | 0.00 | 37 | 1012.6 |
| 20260506180059 | 50 | 218 | 5.2 | 7.8 | 0.00 | 0.00 | 0.00 | 37 | 1012.7 |
| 20260506175533 | 50 | 210 | 2.6 | 7.0 | 0.00 | 0.00 | 0.00 | 38 | 1012.5 |
| 20260506175033 | 50 | 165 | 2.6 | 7.8 | 0.00 | 0.00 | 0.00 | 37 | 1012.4 |
| 20260506174545 | 50 | 222 | 1.7 | 7.8 | 0.00 | 0.00 | 0.00 | 37 | 1012.3 |
| 20260506174033 | 50 | 233 | 5.2 | 7.8 | 0.00 | 0.00 | 0.00 | 36 | 1012.4 |
| 20260506173533 | 51 | 159 | 2.6 | 7.8 | 0.00 | 0.00 | 0.00 | 38 | 1012.4 |
| 20260506173044 | 51 | 170 | 2.6 | 7.8 | 0.00 | 0.00 | 0.00 | 36 | 1012.4 |
| 20260506172533 | 51 | 233 | 4.3 | 7.8 | 0.00 | 0.00 | 0.00 | 36 | 1012.3 |
| 20260506172033 | 51 | 165 | 4.3 | 9.6 | 0.00 | 0.00 | 0.00 | 36 | 1012.2 |
| 20260506171549 | 51 | 172 | 6.1 | 9.6 | 0.00 | 0.00 | 0.00 | 37 | 1012.3 |
| 20260506171034 | 51 | 196 | 5.2 | 8.7 | 0.00 | 0.00 | 0.00 | 38 | 1012.3 |
| 20260506170532 | 51 | 95 | 4.3 | 7.8 | 0.00 | 0.00 | 0.00 | 38 | 1012.2 |
| 20260506170055 | 51 | 185 | 4.3 | 7.0 | 0.00 | 0.00 | 0.00 | 38 | 1012.3 |
| 20260506165533 | 51 | 219 | 2.6 | 6.1 | 0.00 | 0.00 | 0.00 | 38 | 1012.4 |
| 20260506165033 | 51 | 212 | 3.5 | 8.7 | 0.00 | 0.00 | 0.00 | 38 | 1012.6 |
| 20260506164547 | 50 | 161 | 2.6 | 8.7 | 0.00 | 0.00 | 0.00 | 39 | 1012.4 |
| 20260506164033 | 51 | 129 | 3.5 | 8.7 | 0.00 | 0.00 | 0.00 | 37 | 1012.6 |
| 20260506163537 | 51 | 259 | 2.6 | 11.3 | 0.00 | 0.00 | 0.00 | 38 | 1012.4 |
| 20260506163057 | 51 | 215 | 5.2 | 11.3 | 0.00 | 0.00 | 0.00 | 38 | 1012.4 |
| 20260506162535 | 51 | 188 | 5.2 | 10.4 | 0.00 | 0.00 | 0.00 | 36 | 1012.5 |
| 20260506162037 | 52 | 198 | 6.1 | 9.6 | 0.00 | 0.00 | 0.00 | 38 | 1012.3 |
| 20260506161546 | 51 | 229 | 4.3 | 7.0 | 0.00 | 0.00 | 0.00 | 38 | 1012.3 |
| 20260506161035 | 51 | 174 | 3.5 | 7.8 | 0.00 | 0.00 | 0.00 | 39 | 1012.3 |
| 20260506160533 | 51 | 164 | 2.6 | 7.8 | 0.00 | 0.00 | 0.00 | 38 | 1012.3 |
| 20260506160047 | 51 | 199 | 4.3 | 8.7 | 0.00 | 0.00 | 0.00 | 39 | 1012.2 |
| 20260506155533 | 50 | 105 | 2.6 | 8.7 | 0.00 | 0.00 | 0.00 | 40 | 1012.2 |
| 20260506155033 | 50 | 216 | 2.6 | 7.8 | 0.00 | 0.00 | 0.00 | 41 | 1012.2 |
| 20260506154604 | 50 | 198 | 0.9 | 7.0 | 0.00 | 0.00 | 0.00 | 39 | 1012.2 |
| 20260506154033 | 50 | 203 | 3.5 | 7.0 | 0.00 | 0.00 | 0.00 | 40 | 1012.2 |
| 20260506153533 | 50 | 199 | 4.3 | 7.0 | 0.00 | 0.00 | 0.00 | 41 | 1012.2 |
| 20260506153049 | 51 | 185 | 1.7 | 6.1 | 0.00 | 0.00 | 0.00 | 38 | 1012.3 |
| 20260506152533 | 51 | 120 | 1.7 | 4.3 | 0.00 | 0.00 | 0.00 | 40 | 1012.4 |
| 20260506152034 | 50 | 115 | 1.7 | 5.2 | 0.00 | 0.00 | 0.00 | 38 | 1012.4 |
| 20260506151539 | 51 | 146 | 2.6 | 7.8 | 0.00 | 0.00 | 0.00 | 40 | 1012.4 |
| 20260506151033 | 50 | 131 | 1.7 | 10.4 | 0.00 | 0.00 | 0.00 | 41 | 1012.3 |
| 20260506150535 | 50 | 113 | 5.2 | 10.4 | 0.00 | 0.00 | 0.00 | 40 | 1012.4 |
| 20260506150047 | 50 | 86 | 5.2 | 10.4 | 0.00 | 0.00 | 0.00 | 40 | 1012.5 |
| 20260506145534 | 51 | 129 | 3.5 | 10.4 | 0.00 | 0.00 | 0.00 | 41 | 1012.5 |
| 20260506145033 | 50 | 136 | 2.6 | 10.4 | 0.00 | 0.00 | 0.00 | 40 | 1012.3 |
| 20260506144546 | 50 | 100 | 5.2 | 11.3 | 0.00 | 0.00 | 0.00 | 40 | 1012.4 |
| 20260506144033 | 50 | 67 | 4.3 | 11.3 | 0.00 | 0.00 | 0.00 | 41 | 1012.4 |
| 20260506143537 | 50 | 124 | 2.6 | 9.6 | 0.00 | 0.00 | 0.00 | 41 | 1012.5 |
| 20260506143059 | 50 | 145 | 5.2 | 9.6 | 0.00 | 0.00 | 0.00 | 40 | 1012.5 |
| 20260506142536 | 51 | 184 | 4.3 | 9.6 | 0.00 | 0.00 | 0.00 | 42 | 1012.5 |
| 20260506142034 | 50 | 96 | 3.5 | 8.7 | 0.00 | 0.00 | 0.00 | 41 | 1012.5 |
| 20260506141543 | 50 | 103 | 2.6 | 9.6 | 0.00 | 0.00 | 0.00 | 41 | 1012.5 |
| 20260506141034 | 51 | 97 | 3.5 | 9.6 | 0.00 | 0.00 | 0.00 | 41 | 1012.4 |
| 20260506140535 | 51 | 111 | 4.3 | 9.6 | 0.00 | 0.00 | 0.00 | 40 | 1012.6 |
| 20260506140049 | 51 | 104 | 4.3 | 8.7 | 0.00 | 0.00 | 0.00 | 39 | 1012.4 |
| 20260506135533 | 52 | 77 | 4.3 | 8.7 | 0.00 | 0.00 | 0.00 | 42 | 1012.5 |
| 20260506135033 | 52 | 147 | 2.6 | 7.0 | 0.00 | 0.00 | 0.00 | 41 | 1012.5 |
| 20260506134545 | 51 | 110 | 2.6 | 7.0 | 0.00 | 0.00 | 0.00 | 39 | 1012.6 |
| 20260506134034 | 50 | 48 | 1.7 | 10.4 | 0.00 | 0.00 | 0.00 | 38 | 1012.7 |
| 20260506133534 | 51 | 110 | 2.6 | 10.4 | 0.00 | 0.00 | 0.00 | 37 | 1012.5 |
| 20260506133040 | 52 | 83 | 5.2 | 10.4 | 0.00 | 0.00 | 0.00 | 35 | 1012.3 |
| 20260506132533 | 53 | 114 | 1.7 | 10.4 | 0.00 | 0.00 | 0.00 | 41 | 1012.4 |
| 20260506132033 | 51 | 92 | 2.6 | 10.4 | 0.00 | 0.00 | 0.00 | 37 | 1012.4 |
| 20260506131546 | 53 | 129 | 4.3 | 7.8 | 0.00 | 0.00 | 0.00 | 33 | 1012.5 |
| 20260506131033 | 53 | 124 | 3.5 | 7.8 | 0.00 | 0.00 | 0.00 | 36 | 1012.5 |
| 20260506130533 | 52 | 99 | 3.5 | 7.8 | 0.00 | 0.00 | 0.00 | 34 | 1012.5 |
| 20260506130044 | 53 | 107 | 2.6 | 5.2 | 0.00 | 0.00 | 0.00 | 31 | 1012.6 |
| 20260506125537 | 53 | 180 | 2.6 | 5.2 | 0.00 | 0.00 | 0.00 | 32 | 1012.5 |
| 20260506125037 | 52 | 201 | 1.7 | 6.1 | 0.00 | 0.00 | 0.00 | 32 | 1012.6 |
| 20260506124541 | 52 | 153 | 3.5 | 6.1 | 0.00 | 0.00 | 0.00 | 30 | 1012.7 |
| 20260506124033 | 52 | 330 | 1.7 | 6.1 | 0.00 | 0.00 | 0.00 | 33 | 1012.6 |
| 20260506123533 | 52 | 219 | 1.7 | 6.1 | 0.00 | 0.00 | 0.00 | 31 | 1012.7 |
| 20260506123040 | 53 | 65 | 0.9 | 7.0 | 0.00 | 0.00 | 0.00 | 35 | 1012.7 |
| 20260506122532 | 53 | 148 | 1.7 | 7.0 | 0.00 | 0.00 | 0.00 | 32 | 1012.8 |
| 20260506122032 | 53 | 116 | 3.5 | 7.0 | 0.00 | 0.00 | 0.00 | 34 | 1012.8 |
| 20260506121543 | 53 | 172 | 1.7 | 5.2 | 0.00 | 0.00 | 0.00 | 33 | 1012.9 |
| 20260506121033 | 52 | 60 | 1.7 | 5.2 | 0.00 | 0.00 | 0.00 | 31 | 1012.9 |
| 20260506120534 | 52 | 207 | 2.6 | 5.2 | 0.00 | 0.00 | 0.00 | 33 | 1012.8 |
| 20260506120038 | 52 | 231 | 1.7 | 4.3 | 0.00 | 0.00 | 0.00 | 32 | 1012.8 |
| 20260506115535 | 51 | 289 | 2.6 | 6.1 | 0.00 | 0.00 | 0.00 | 33 | 1012.9 |
| 20260506115032 | 52 | 328 | 3.5 | 6.1 | 0.00 | 0.00 | 0.00 | 33 | 1013.0 |
| 20260506114547 | 52 | 237 | 2.6 | 9.6 | 0.00 | 0.00 | 0.00 | 30 | 1013.0 |
| 20260506114033 | 52 | 206 | 3.5 | 9.6 | 0.00 | 0.00 | 0.00 | 33 | 1012.9 |
| 20260506113535 | 51 | 243 | 7.0 | 9.6 | 0.00 | 0.00 | 0.00 | 32 | 1013.0 |
| 20260506113039 | 52 | 234 | 2.6 | 7.8 | 0.00 | 0.00 | 0.00 | 32 | 1013.0 |
| 20260506112533 | 53 | 193 | 4.3 | 10.4 | 0.00 | 0.00 | 0.00 | 33 | 1013.0 |
| 20260506112032 | 51 | 124 | 5.2 | 10.4 | 0.00 | 0.00 | 0.00 | 33 | 1013.1 |
| 20260506111541 | 51 | 209 | 2.6 | 7.0 | 0.00 | 0.00 | 0.00 | 31 | 1013.1 |
| 20260506111034 | 51 | 216 | 2.6 | 5.2 | 0.00 | 0.00 | 0.00 | 31 | 1013.1 |
| 20260506110534 | 51 | 42 | 2.6 | 7.8 | 0.00 | 0.00 | 0.00 | 33 | 1013.1 |
| 20260506110038 | 51 | 153 | 3.5 | 10.4 | 0.00 | 0.00 | 0.00 | 35 | 1013.2 |
| 20260506105531 | 50 | 92 | 2.6 | 10.4 | 0.00 | 0.00 | 0.00 | 34 | 1013.2 |
| 20260506105033 | 51 | 198 | 6.1 | 10.4 | 0.00 | 0.00 | 0.00 | 32 | 1013.1 |
| 20260506104545 | 51 | 231 | 2.6 | 6.1 | 0.00 | 0.00 | 0.00 | 34 | 1013.2 |
| 20260506104033 | 50 | 345 | 0.9 | 6.1 | 0.00 | 0.00 | 0.00 | 34 | 1013.3 |
| 20260506103533 | 50 | 345 | 1.7 | 6.1 | 0.00 | 0.00 | 0.00 | 35 | 1013.3 |
| 20260506103044 | 49 | 349 | 0.9 | 7.0 | 0.00 | 0.00 | 0.00 | 33 | 1013.3 |
| 20260506102533 | 49 | 330 | 1.7 | 7.0 | 0.00 | 0.00 | 0.00 | 35 | 1013.3 |
| 20260506102034 | 49 | 220 | 1.7 | 4.3 | 0.00 | 0.00 | 0.00 | 35 | 1013.3 |
| 20260506101543 | 49 | 349 | 1.7 | 4.3 | 0.00 | 0.00 | 0.00 | 34 | 1013.4 |
| 20260506101033 | 49 | 128 | 1.7 | 4.3 | 0.00 | 0.00 | 0.00 | 34 | 1013.4 |
| 20260506100533 | 49 | 278 | 2.6 | 9.6 | 0.00 | 0.00 | 0.00 | 36 | 1013.5 |
| 20260506100047 | 49 | 336 | 0.9 | 9.6 | 0.00 | 0.00 | 0.00 | 39 | 1013.5 |
| 20260506095533 | 50 | 325 | 5.2 | 9.6 | 0.00 | 0.00 | 0.00 | 35 | 1013.5 |
| 20260506095034 | 49 | 287 | 0.9 | 6.1 | 0.00 | 0.00 | 0.00 | 35 | 1013.6 |
| 20260506094549 | 48 | 321 | 0.9 | 6.1 | 0.00 | 0.00 | 0.00 | 36 | 1013.5 |
| 20260506094034 | 49 | 98 | 2.6 | 6.1 | 0.00 | 0.00 | 0.00 | 35 | 1013.6 |
| 20260506093536 | 49 | 107 | 2.6 | 5.2 | 0.00 | 0.00 | 0.00 | 37 | 1013.6 |
| 20260506093038 | 48 | 217 | 0.9 | 7.0 | 0.00 | 0.00 | 0.00 | 37 | 1013.5 |
| 20260506092533 | 47 | 240 | 1.7 | 7.0 | 0.00 | 0.00 | 0.00 | 38 | 1013.6 |
| 20260506092033 | 47 | 236 | 1.7 | 7.0 | 0.00 | 0.00 | 0.00 | 37 | 1013.7 |
| 20260506091546 | 47 | 345 | 3.5 | 7.0 | 0.00 | 0.00 | 0.00 | 35 | 1013.6 |
| 20260506091035 | 46 | 0 | 0.9 | 6.1 | 0.00 | 0.00 | 0.00 | 37 | 1013.6 |
| 20260506090533 | 47 | 283 | 3.5 | 6.1 | 0.00 | 0.00 | 0.00 | 39 | 1013.7 |
| 20260506090042 | 47 | 338 | 0.9 | 5.2 | 0.00 | 0.00 | 0.00 | 38 | 1013.7 |
| 20260506085533 | 47 | 87 | 1.7 | 6.1 | 0.00 | 0.00 | 0.00 | 39 | 1013.7 |
| 20260506085035 | 47 | 301 | 1.7 | 6.1 | 0.00 | 0.00 | 0.00 | 39 | 1013.7 |
| 20260506084546 | 46 | 39 | 3.5 | 6.1 | 0.00 | 0.00 | 0.00 | 41 | 1013.7 |
| 20260506084033 | 46 | 98 | 3.5 | 6.1 | 0.00 | 0.00 | 0.00 | 40 | 1013.8 |
| 20260506083533 | 46 | 120 | 0.9 | 6.1 | 0.00 | 0.00 | 0.00 | 41 | 1013.7 |
| 20260506083042 | 45 | 156 | 3.5 | 6.1 | 0.00 | 0.00 | 0.00 | 40 | 1013.7 |
| 20260506082532 | 45 | 153 | 1.7 | 5.2 | 0.00 | 0.00 | 0.00 | 42 | 1013.9 |
| 20260506082033 | 45 | 256 | 0.9 | 6.1 | 0.00 | 0.00 | 0.00 | 40 | 1013.9 |
| 20260506081545 | 45 | 309 | 1.7 | 6.1 | 0.00 | 0.00 | 0.00 | 41 | 1014.0 |
| 20260506081034 | 45 | 317 | 3.5 | 6.1 | 0.00 | 0.00 | 0.00 | 43 | 1014.0 |
| 20260506080533 | 45 | 293 | 1.7 | 7.0 | 0.00 | 0.00 | 0.00 | 42 | 1014.0 |
| 20260506073047 | 43 | 344 | 1.7 | 6.1 | 0.00 | 0.00 | 0.00 | 47 | 1014.0 |
| 20260506072533 | 43 | 31 | 3.5 | 6.1 | 0.00 | 0.00 | 0.00 | 47 | 1013.9 |
| 20260506072037 | 42 | 338 | 1.7 | 6.1 | 0.00 | 0.00 | 0.00 | 46 | 1013.9 |
| 20260506071542 | 42 | 20 | 3.5 | 7.8 | 0.00 | 0.00 | 0.00 | 47 | 1014.0 |
| 20260506071033 | 42 | 2 | 3.5 | 7.8 | 0.00 | 0.00 | 0.00 | 48 | 1013.9 |
| 20260506070533 | 42 | 341 | 4.3 | 7.8 | 0.00 | 0.00 | 0.00 | 48 | 1013.9 |
| 20260506062033 | 40 | 342 | 3.5 | 7.0 | 0.00 | 0.00 | 0.00 | 53 | 1013.9 |
| 20260506061545 | 39 | 346 | 4.3 | 9.6 | 0.00 | 0.00 | 0.00 | 53 | 1013.9 |
| 20260506061033 | 39 | 22 | 6.1 | 9.6 | 0.00 | 0.00 | 0.00 | 54 | 1014.0 |
| 20260506060534 | 39 | 328 | 5.2 | 7.8 | 0.00 | 0.00 | 0.00 | 54 | 1014.0 |
| 20260506051032 | 36 | 356 | 4.3 | 8.7 | 0.00 | 0.00 | 0.00 | 56 | 1013.7 |
| 20260506050534 | 36 | 347 | 4.3 | 8.7 | 0.00 | 0.00 | 0.00 | 56 | 1013.7 |
| 20260506045033 | 36 | 349 | 5.2 | 9.6 | 0.00 | 0.00 | 0.00 | 56 | 1013.6 |
| 20260506044551 | 36 | 15 | 5.2 | 9.6 | 0.00 | 0.00 | 0.00 | 56 | 1013.6 |
| 20260506044036 | 35 | 328 | 6.1 | 9.6 | 0.00 | 0.00 | 0.00 | 56 | 1013.7 |
| 20260506043536 | 35 | 338 | 5.2 | 7.8 | 0.00 | 0.00 | 0.00 | 57 | 1013.7 |
| 20260506043044 | 35 | 2 | 4.3 | 8.7 | 0.00 | 0.00 | 0.00 | 57 | 1013.6 |
| 20260506042533 | 35 | 290 | 5.2 | 8.7 | 0.00 | 0.00 | 0.00 | 57 | 1013.7 |
| 20260506042033 | 35 | 313 | 5.2 | 9.6 | 0.00 | 0.00 | 0.00 | 57 | 1013.7 |
| 20260506041541 | 35 | 347 | 6.1 | 9.6 | 0.00 | 0.00 | 0.00 | 58 | 1013.7 |
| 20260506041033 | 34 | 2 | 1.7 | 7.0 | 0.00 | 0.00 | 0.00 | 59 | 1013.7 |
| 20260506040533 | 34 | 0 | 0.0 | 7.8 | 0.00 | 0.00 | 0.00 | 59 | 1013.6 |
| 20260506040056 | 34 | 6 | 4.3 | 7.8 | 0.00 | 0.00 | 0.00 | 58 | 1013.6 |
| 20260506035538 | 34 | 344 | 3.5 | 7.8 | 0.00 | 0.00 | 0.00 | 58 | 1013.6 |
| 20260506035035 | 34 | 15 | 3.5 | 7.8 | 0.00 | 0.00 | 0.00 | 57 | 1013.6 |
| 20260506034538 | 34 | 7 | 5.2 | 8.7 | 0.00 | 0.00 | 0.00 | 57 | 1013.6 |
| 20260506034032 | 34 | 18 | 5.2 | 8.7 | 0.00 | 0.00 | 0.00 | 57 | 1013.6 |
| 20260506033534 | 34 | 9 | 5.2 | 8.7 | 0.00 | 0.00 | 0.00 | 57 | 1013.6 |
| 20260506033039 | 35 | 346 | 5.2 | 8.7 | 0.00 | 0.00 | 0.00 | 57 | 1013.6 |
| 20260506032533 | 35 | 342 | 5.2 | 7.8 | 0.00 | 0.00 | 0.00 | 57 | 1013.5 |
| 20260506032035 | 35 | 338 | 5.2 | 7.8 | 0.00 | 0.00 | 0.00 | 57 | 1013.5 |
| 20260506031556 | 35 | 358 | 5.2 | 8.7 | 0.00 | 0.00 | 0.00 | 57 | 1013.5 |
| 20260506031033 | 34 | 358 | 4.3 | 8.7 | 0.00 | 0.00 | 0.00 | 57 | 1013.5 |
| 20260506030534 | 34 | 357 | 4.3 | 8.7 | 0.00 | 0.00 | 0.00 | 57 | 1013.5 |
| 20260506030041 | 34 | 354 | 3.5 | 7.8 | 0.00 | 0.00 | 0.00 | 58 | 1013.5 |
| 20260506025533 | 34 | 31 | 4.3 | 7.8 | 0.00 | 0.00 | 0.00 | 57 | 1013.5 |
| 20260506025033 | 34 | 354 | 4.3 | 7.0 | 0.00 | 0.00 | 0.00 | 58 | 1013.5 |
| 20260506024540 | 34 | 4 | 2.6 | 6.1 | 0.00 | 0.00 | 0.00 | 59 | 1013.5 |
| 20260506024033 | 34 | 21 | 1.7 | 5.2 | 0.00 | 0.00 | 0.00 | 59 | 1013.6 |
| 20260506023533 | 34 | 349 | 1.7 | 5.2 | 0.00 | 0.00 | 0.00 | 59 | 1013.5 |
| 20260506023038 | 34 | 359 | 2.6 | 7.0 | 0.00 | 0.00 | 0.00 | 60 | 1013.5 |
| 20260506022532 | 34 | 11 | 3.5 | 7.8 | 0.00 | 0.00 | 0.00 | 58 | 1013.4 |
| 20260506022032 | 34 | 344 | 4.3 | 7.8 | 0.00 | 0.00 | 0.00 | 58 | 1013.6 |
| 20260506021551 | 34 | 17 | 3.5 | 7.8 | 0.00 | 0.00 | 0.00 | 59 | 1013.5 |
| 20260506021033 | 34 | 360 | 3.5 | 8.7 | 0.00 | 0.00 | 0.00 | 58 | 1013.6 |
| 20260506020534 | 35 | 16 | 4.3 | 8.7 | 0.00 | 0.00 | 0.00 | 57 | 1013.5 |
| 20260506020045 | 35 | 335 | 5.2 | 8.7 | 0.00 | 0.00 | 0.00 | 57 | 1013.5 |
| 20260506015532 | 35 | 11 | 5.2 | 7.8 | 0.00 | 0.00 | 0.00 | 57 | 1013.4 |
| 20260506015034 | 35 | 359 | 3.5 | 7.8 | 0.00 | 0.00 | 0.00 | 57 | 1013.5 |
| 20260506014545 | 35 | 344 | 4.3 | 8.7 | 0.00 | 0.00 | 0.00 | 57 | 1013.5 |
| 20260506014033 | 35 | 328 | 5.2 | 8.7 | 0.00 | 0.00 | 0.00 | 56 | 1013.4 |
| 20260506013532 | 36 | 357 | 5.2 | 8.7 | 0.00 | 0.00 | 0.00 | 56 | 1013.4 |
| 20260506013046 | 36 | 332 | 5.2 | 8.7 | 0.00 | 0.00 | 0.00 | 56 | 1013.4 |
| 20260506012533 | 35 | 360 | 5.2 | 7.8 | 0.00 | 0.00 | 0.00 | 56 | 1013.4 |
| 20260506012035 | 35 | 360 | 3.5 | 7.8 | 0.00 | 0.00 | 0.00 | 57 | 1013.4 |
| 20260506011540 | 35 | 13 | 2.6 | 8.7 | 0.00 | 0.00 | 0.00 | 57 | 1013.2 |
| 20260506011035 | 35 | 353 | 3.5 | 8.7 | 0.00 | 0.00 | 0.00 | 57 | 1013.3 |
| 20260506010533 | 35 | 322 | 0.9 | 3.5 | 0.00 | 0.00 | 0.00 | 57 | 1013.3 |
| 20260506010043 | 35 | 56 | 0.0 | 7.0 | 0.00 | 0.00 | 0.00 | 57 | 1013.3 |
| 20260506005533 | 35 | 0 | 0.9 | 7.0 | 0.00 | 0.00 | 0.00 | 57 | 1013.2 |
| 20260506005032 | 35 | 328 | 1.7 | 5.2 | 0.00 | 0.00 | 0.00 | 56 | 1013.2 |
| 20260506004538 | 35 | 47 | 0.0 | 5.2 | 0.00 | 0.00 | 0.00 | 56 | 1013.1 |
| 20260506004033 | 36 | 2 | 1.7 | 7.0 | 0.00 | 0.00 | 0.00 | 56 | 1013.1 |
| 20260506003534 | 36 | 28 | 3.5 | 7.0 | 0.00 | 0.00 | 0.00 | 56 | 1013.1 |
| 20260506003045 | 35 | 9 | 1.7 | 7.0 | 0.00 | 0.00 | 0.00 | 57 | 1013.1 |
| 20260506002537 | 35 | 345 | 0.9 | 5.2 | 0.00 | 0.00 | 0.00 | 57 | 1013.2 |
| 20260506002034 | 35 | 359 | 1.7 | 5.2 | 0.00 | 0.00 | 0.00 | 58 | 1013.1 |
| 20260506001544 | 35 | 342 | 0.0 | 6.1 | 0.00 | 0.00 | 0.00 | 57 | 1013.2 |
| 20260506001035 | 36 | 340 | 1.7 | 6.1 | 0.00 | 0.00 | 0.00 | 57 | 1013.1 |
| 20260506000535 | 36 | 8 | 3.5 | 7.8 | 0.00 | 0.00 | 0.00 | 57 | 1013.1 |
| 20260506000044 | 36 | 347 | 4.3 | 7.8 | 0.00 | 0.00 | 0.00 | 57 | 1013.1 |
| 20260505235535 | 36 | 356 | 5.2 | 7.8 | 0.00 | 0.00 | 0.00 | 56 | 1013.2 |
| 20260505235035 | 36 | 346 | 0.9 | 6.1 | 0.00 | 0.00 | 0.00 | 56 | 1013.3 |
| 20260505234557 | 37 | 347 | 3.5 | 7.8 | 0.00 | 0.00 | 0.00 | 56 | 1013.1 |
| 20260505234034 | 37 | 345 | 3.5 | 7.8 | 0.00 | 0.00 | 0.00 | 56 | 1013.1 |
| 20260505233535 | 37 | 32 | 4.3 | 6.1 | 0.00 | 0.00 | 0.00 | 56 | 1013.1 |
| 20260505233042 | 37 | 4 | 3.5 | 8.7 | 0.00 | 0.00 | 0.00 | 55 | 1013.2 |
| 20260505232535 | 37 | 35 | 4.3 | 8.7 | 0.00 | 0.00 | 0.00 | 55 | 1013.0 |
| 20260505232035 | 37 | 355 | 3.5 | 8.7 | 0.00 | 0.00 | 0.00 | 55 | 1013.1 |
| 20260505231546 | 37 | 321 | 4.3 | 8.7 | 0.00 | 0.00 | 0.00 | 57 | 1013.1 |
| 20260505231037 | 36 | 5 | 3.5 | 6.1 | 0.00 | 0.00 | 0.00 | 58 | 1013.1 |
| 20260505230534 | 36 | 338 | 3.5 | 6.1 | 0.00 | 0.00 | 0.00 | 59 | 1013.0 |
| 20260505230038 | 36 | 2 | 1.7 | 5.2 | 0.00 | 0.00 | 0.00 | 59 | 1013.1 |
| 20260505225535 | 36 | 51 | 0.9 | 4.3 | 0.00 | 0.00 | 0.00 | 58 | 1013.0 |
| 20260505225036 | 37 | 349 | 0.9 | 5.2 | 0.00 | 0.00 | 0.00 | 56 | 1013.1 |
| 20260505224546 | 38 | 345 | 3.5 | 7.0 | 0.00 | 0.00 | 0.00 | 55 | 1013.1 |
| 20260505224035 | 38 | 26 | 3.5 | 7.0 | 0.00 | 0.00 | 0.00 | 54 | 1013.0 |
| 20260505223535 | 38 | 345 | 4.3 | 7.0 | 0.00 | 0.00 | 0.00 | 54 | 1013.1 |
| 20260505223051 | 37 | 338 | 2.6 | 5.2 | 0.00 | 0.00 | 0.00 | 55 | 1013.1 |
| 20260505222535 | 38 | 0 | 0.0 | 4.3 | 0.00 | 0.00 | 0.00 | 56 | 1013.2 |
| 20260505222036 | 38 | 0 | 0.9 | 5.2 | 0.00 | 0.00 | 0.00 | 54 | 1013.0 |
| 20260505221549 | 38 | 345 | 2.6 | 5.2 | 0.00 | 0.00 | 0.00 | 53 | 1013.0 |
| 20260505221034 | 38 | 329 | 3.5 | 5.2 | 0.00 | 0.00 | 0.00 | 53 | 1013.1 |
| 20260505220539 | 37 | 4 | 2.6 | 4.3 | 0.00 | 0.00 | 0.00 | 55 | 1013.1 |
| 20260505220048 | 37 | 345 | 0.0 | 2.6 | 0.00 | 0.00 | 0.00 | 55 | 1013.2 |
| 20260505215535 | 38 | 0 | 0.9 | 2.6 | 0.00 | 0.00 | 0.00 | 54 | 1013.2 |